Regional Weather Roundup
Issued by NWS

Home | Current Version | Previous Version | Text Only | Print | Product List | Glossary Off
Versions: 1 2 3 4 5 6 7 8 9 10 11 12 13 14 15 16 17 18 19 20 21 22 23 24 25 26 27 28 29 30 31 32 33 34 35 36 37 38 39 40 41 42 43 44 45 46 47 48 49 50

000
ASUS43 KFSD 241202
RWRSD

WEATHER ROUNDUP FOR SOUTH DAKOTA
NATIONAL WEATHER SERVICE SIOUX FALLS SD
700 AM CDT MON APR 24 2017

NOTE: "FAIR" INDICATES FEW OR NO CLOUDS BELOW 12,000 FEET WITH NO
SIGNIFICANT WEATHER AND/OR OBSTRUCTIONS TO VISIBILITY.


SDZ001>005-009-010-012>017-241300-
NORTHWEST AND NORTH CENTRAL SOUTH DAKOTA

CITY           SKY/WX    TMP DP  RH WIND       PRES   REMARKS
BUFFALO          N/A     34  33  96 E5        29.55S WCI  30
FAITH            N/A     32  32 100 N14       29.59F WCI  22
MOBRIDGE       CLOUDY    38  34  85 N12       29.55R
$$

SDZ012>016-024>037-041>051-057-063-072>074-241300-
SOUTHWEST AND SOUTH CENTRAL SOUTH DAKOTA

CITY           SKY/WX    TMP DP  RH WIND       PRES   REMARKS
RAPID CTY ARPT FOG       38  37  97 N13       29.59S VSB 1/2
PIERRE         MOCLDY    39  36  89 NW14      29.51R
CUSTER         CLOUDY    42  35  76 CALM      29.61R
ELLSWORTH AFB  DRZL/FOG  37  37 100 N10       29.60R VSB 0
PHILIP         CLOUDY    39  36  89 NW15G22   29.60R
PINE RIDGE     CLOUDY    43  41  93 N3        29.57R
SPEARFISH      FOG       39  39 100 NW9       29.63R VSB<1/4
WINNER         FAIR      55  37  50 S18G25    29.51F
$$

SDZ004>011-016>023-039-040-241300-
NORTHEAST SOUTH DAKOTA

CITY           SKY/WX    TMP DP  RH WIND       PRES   REMARKS
ABERDEEN       CLOUDY    40  36  86 N9        29.55S
WATERTOWN      CLOUDY    48  36  63 S13       29.60F
BROOKINGS      CLOUDY    50  35  56 S15       29.64F
SISSETON         N/A     41  39  93 E3        29.57F
$$

SDZ017-020-022-023-036>040-048>070-241300-
SOUTHEAST SOUTH DAKOTA

CITY           SKY/WX    TMP DP  RH WIND       PRES   REMARKS
SIOUX FALLS    CLOUDY    53  36  52 S20G28    29.65F
HURON          CLOUDY    52  38  58 S14G23    29.55F
CHAMBERLAIN    CLOUDY    54  39  57 E8        29.52S
MITCHELL       CLOUDY    53  38  56 S14       29.57F
YANKTON        CLOUDY    54  34  47 S12G18    29.63F
$$

ABBREVIATIONS USED IN REMARKS
   TC - TEMPERATURE IN CELSIUS
  WCI - WIND CHILL INDEX
   HX - HEAT INDEX
  VSB - VISIBILITY




USA.gov is the U.S. government's official web portal to all federal, state and local government web resources and services.